Nashua, NH

2:43 PM EDT on September 26, 2017 (GMT -0400)
Boire

Weather History for KASH - January, 2012

Change the Weather History Date:

Monday, January 16, 2012

  Actual Average Record
Temperature  
Mean Temperature 16 °F -  
Max Temperature 31 °F 30 °F 62 °F (1995)
Min Temperature 1 °F 7 °F -13 °F (2009)
Degree Days  
Heating Degree Days 50    
Moisture  
Dew Point 7 °F    
Average Humidity 61    
Maximum Humidity 93    
Minimum Humidity 30    
Precipitation  
Precipitation 0.00 in - - ()
Sea Level Pressure  
Sea Level Pressure 30.38 in    
Wind  
Wind Speed 3 mph (SSW)    
Max Wind Speed 9 mph    
Max Gust Speed -    
Visibility 8 miles    
Events Snow    
Averages and records for this station are not official NWS values.
T = Trace of Precipitation, MM = Missing Value Source: NWS Daily Summary

Daily Weather History Graph

Daily Weather History Graph

Search for Another Location

Airport or City:

Trip Planner

Search our weather history database for the weather conditions in past years. The results will help you decide how hot, cold, wet, or windy it might be!

Date:

Astronomy

Jan. 16, 2012 Rise Set
Actual Time 7:13 AM EST 4:38 PM EST
Civil Twilight 6:42 AM EST 5:09 PM EST
Nautical Twilight 6:07 AM EST 5:44 PM EST
Astronomical Twilight 5:33 AM EST 6:18 PM EST
Moon 12:15 AM EST (1/16) 10:52 AM EST (1/16)
Length of Visible Light 10h 27m
Length of Day
9h 24m
Waning Gibbous, 46% of the Moon is Illuminated
Jan 16
Waning Gibbous
Jan 23
New
Jan 30
First Quarter
Feb 7
Full
Feb 14
Last Quarter

Hourly Weather History & Observations

Time (EST) Temp. Windchill Dew Point Humidity Pressure Visibility Wind Dir Wind Speed Gust Speed Precip Events Conditions
12:51 AM 6.1 °F -0.9 °F -4.9 °F 61% 30.55 in 10.0 mi NNW 3.5 mph - N/A   Clear
1:51 AM 7.2 °F -3.0 °F -6.0 °F 55% 30.56 in 10.0 mi NNW 5.8 mph - N/A   Clear
2:51 AM 5.0 °F - -4.9 °F 64% 30.57 in 10.0 mi Calm Calm - N/A   Clear
3:51 AM 3.0 °F - -4.0 °F 73% 30.58 in 10.0 mi Calm Calm - N/A   Clear
4:51 AM 4.1 °F - -4.0 °F 69% 30.57 in 10.0 mi Calm Calm - N/A   Clear
5:51 AM 3.0 °F - -4.0 °F 73% 30.58 in 10.0 mi Calm Calm - N/A   Clear
6:51 AM 1.0 °F - -4.9 °F 76% 30.59 in 10.0 mi Calm Calm - N/A   Clear
7:51 AM 1.0 °F - -4.9 °F 76% 30.60 in 10.0 mi Calm Calm - N/A   Clear
8:51 AM 6.1 °F - -2.9 °F 67% 30.59 in 10.0 mi Calm Calm - N/A   Clear
9:51 AM 11.1 °F - -1.8 °F 56% 30.59 in 10.0 mi Calm Calm - N/A   Clear
10:51 AM 19.0 °F - 0.1 °F 44% 30.55 in 10.0 mi Calm Calm - N/A   Clear
11:51 AM 23.0 °F - 2.1 °F 41% 30.50 in 10.0 mi Calm Calm - N/A   Clear
12:51 PM 27.1 °F 20.7 °F 2.1 °F 34% 30.46 in 10.0 mi SSE 5.8 mph - N/A   Clear
1:51 PM 28.0 °F - 1.0 °F 31% 30.41 in 10.0 mi Calm Calm - N/A   Clear
2:51 PM 29.1 °F 24.1 °F 2.1 °F 32% 30.37 in 10.0 mi Variable 4.6 mph - N/A   Mostly Cloudy
3:51 PM 29.1 °F 22.1 °F 1.0 °F 30% 30.35 in 10.0 mi South 6.9 mph - N/A   Scattered Clouds
4:51 PM 28.0 °F 22.8 °F 3.0 °F 34% 30.33 in 10.0 mi Variable 4.6 mph - N/A   Clear
5:51 PM 28.0 °F 21.7 °F 3.0 °F 34% 30.31 in 10.0 mi Variable 5.8 mph - N/A   Clear
6:51 PM 27.1 °F 21.8 °F 4.1 °F 37% 30.28 in 10.0 mi Variable 4.6 mph - N/A   Overcast
7:51 PM 27.1 °F - 12.0 °F 53% 30.26 in 10.0 mi Calm Calm - N/A   Overcast
8:51 PM 28.0 °F 24.2 °F 16.2 °F 61% 30.22 in 10.0 mi Variable 3.5 mph - 0.00 in   Mostly Cloudy
9:51 PM 28.0 °F 21.7 °F 21.0 °F 75% 30.19 in 5.0 mi SSW 5.8 mph - 0.00 in   Mostly Cloudy
10:10 PM 28.4 °F 24.6 °F 23.0 °F 80% 30.16 in 5.0 mi Variable 3.5 mph - 0.00 in   Mostly Cloudy
10:25 PM 28.4 °F 21.2 °F 24.8 °F 86% 30.16 in 2.0 mi Variable 6.9 mph - 0.00 in Snow Light Snow
10:42 PM 28.4 °F 21.2 °F 26.6 °F 93% 30.15 in 1.8 mi Variable 6.9 mph - 0.00 in Snow Light Snow
10:51 PM 30.0 °F 23.2 °F 26.1 °F 85% 30.16 in 1.5 mi Variable 6.9 mph - 0.00 in Snow Light Snow
11:00 PM 30.2 °F 23.4 °F 26.6 °F 86% 30.14 in 2.5 mi Variable 6.9 mph - 0.00 in Snow Light Snow
11:05 PM 30.2 °F 21.9 °F 26.6 °F 86% 30.14 in 3.0 mi SSW 9.2 mph - 0.00 in Snow Light Snow
11:51 PM 31.1 °F 26.4 °F 26.1 °F 82% 30.12 in 10.0 mi Variable 4.6 mph - 0.00 in Snow Light Snow